Regional Weather Roundup
Issued by NWS

Home | Current Version | Previous Version | Graphics & Text | Print | Product List | Glossary On
Versions: 1 2 3 4 5 6 7 8 9 10 11 12 13 14 15 16 17 18 19 20 21 22 23 24 25 26 27 28 29 30 31 32 33 34 35 36 37 38 39 40 41 42 43 44 45 46 47 48 49 50
000
ASUS43 KLMK 281602
RWRKY
KENTUCKY REGIONAL WEATHER ROUNDUP
NATIONAL WEATHER SERVICE LOUISVILLE KY
1200 PM EDT THU MAY 28 2015

NOTE "FAIR" INDICATES FEW OR NO CLOUDS BELOW 12,000 FEET
WITH NO SIGNIFICANT WEATHER AND/OR OBSTRUCTIONS TO VISIBILITY.

KYZ001>023-026-027-061>063-070>075-281700-
WESTERN AND SOUTH CENTRAL KENTUCKY

CITY           SKY/WX    TMP DP  RH WIND       PRES   REMARKS
PADUCAH        MOSUNNY   79  65  62 E7        30.16F
HENDERSON      PTSUNNY   77  66  69 SE5       30.16F
OWENSBORO      PTSUNNY   79  68  69 VRB5      30.19F
HOPKINSVILLE   MOSUNNY   76  67  74 VRB5      30.19S
BOWLING GREEN  MOSUNNY   78  66  66 SE5       30.21F
GLASGOW        NOT AVBL
$$

KYZ024-025-028>034-038-045-046-053-281700-
NORTH CENTRAL KENTUCKY

CITY           SKY/WX    TMP DP  RH WIND       PRES   REMARKS
LOUISVILLE/SDF CLOUDY    74  67  78 S6        30.22R
LOUISVILLE/LOU CLOUDY    75  66  73 CALM      30.22S
FORT KNOX      CLOUDY    70  70 100 VRB5      30.21S
$$

KYZ035>037-039>044-047>052-055>060-089>105-281700-
NORTHEAST KENTUCKY

CITY           SKY/WX    TMP DP  RH WIND       PRES   REMARKS
LEXINGTON      PTSUNNY   75  67  76 CALM      30.24S
COVINGTON      PTSUNNY   74  66  76 SE5       30.23S
FRANKFORT        N/A     70  65  84 MISG      30.24R
$$

KYZ054-064>069-076>088-106>120-281700-
SOUTHEAST KENTUCKY

CITY           SKY/WX    TMP DP  RH WIND       PRES   REMARKS
JACKSON        CLOUDY    76  65  68 CALM      30.26S
LONDON         CLOUDY    73  61  65 E5        30.26S
SOMERSET       NOT AVBL
MIDDLESBORO    CLOUDY    75  65  70 CALM      30.26S
MONTICELLO     CLOUDY    73  68  84 CALM      30.27F
$$




USA.gov is the U.S. government's official web portal to all federal, state and local government web resources and services.